| time (UTC) | temp F | wind direction | speed MPH | gust MPH | rain 1hr in | rain 24hr in | rain mn in | humidity % | barometer mb |
| 20260903233016 | 65 | 277 | 0.0 | 0.0 | 0.00 | 0.00 | 0.00 | 73 | 1024.8 |
| 20260903232509 | 65 | 275 | 0.0 | 0.0 | 0.00 | 0.00 | 0.00 | 73 | 1024.7 |
| 20260903232008 | 65 | 275 | 0.0 | 3.0 | 0.00 | 0.00 | 0.00 | 72 | 1024.7 |
| 20260903231508 | 65 | 296 | 0.0 | 3.0 | 0.00 | 0.00 | 0.00 | 72 | 1024.7 |
| 20260903231007 | 65 | 294 | 1.0 | 3.0 | 0.00 | 0.00 | 0.00 | 72 | 1024.7 |
| 20260903230510 | 65 | 247 | 1.0 | 5.0 | 0.00 | 0.00 | 0.00 | 71 | 1024.8 |
| 20260903230007 | 65 | 324 | 1.0 | 5.0 | 0.00 | 0.00 | 0.00 | 72 | 1024.8 |
| 20260903225508 | 65 | 312 | 1.0 | 4.0 | 0.00 | 0.00 | 0.00 | 71 | 1024.7 |
| 20260903225007 | 66 | 308 | 1.0 | 4.0 | 0.00 | 0.00 | 0.00 | 71 | 1024.7 |
| 20260903224505 | 66 | 310 | 1.0 | 4.0 | 0.00 | 0.00 | 0.00 | 71 | 1024.7 |
| 20260903224004 | 66 | 304 | 1.0 | 4.0 | 0.00 | 0.00 | 0.00 | 70 | 1024.8 |
| 20260903223503 | 66 | 261 | 1.0 | 4.0 | 0.00 | 0.00 | 0.00 | 70 | 1024.8 |
| 20260903223002 | 66 | 313 | 1.0 | 4.0 | 0.00 | 0.00 | 0.00 | 70 | 1024.8 |
| 20260903222502 | 66 | 264 | 0.0 | 4.0 | 0.00 | 0.00 | 0.00 | 69 | 1024.8 |
| 20260903222004 | 67 | 309 | 2.0 | 4.0 | 0.00 | 0.00 | 0.00 | 69 | 1024.8 |
| 20260903221601 | 67 | 308 | 1.0 | 4.0 | 0.00 | 0.00 | 0.00 | 69 | 1024.8 |
| 20260903221059 | 67 | 308 | 1.0 | 4.0 | 0.00 | 0.00 | 0.00 | 69 | 1024.8 |
| 20260903220600 | 67 | 187 | 0.0 | 3.0 | 0.00 | 0.00 | 0.00 | 68 | 1024.8 |
| 20260903220100 | 67 | 187 | 1.0 | 3.0 | 0.00 | 0.00 | 0.00 | 68 | 1024.7 |
| 20260903215600 | 67 | 187 | 0.0 | 2.0 | 0.00 | 0.00 | 0.00 | 68 | 1024.8 |
| 20260903215058 | 67 | 187 | 0.0 | 3.0 | 0.00 | 0.00 | 0.00 | 68 | 1024.9 |
| 20260903214557 | 68 | 187 | 1.0 | 3.0 | 0.00 | 0.00 | 0.00 | 68 | 1024.9 |
| 20260903214059 | 68 | 187 | 0.0 | 3.0 | 0.00 | 0.00 | 0.00 | 68 | 1024.9 |
| 20260903213600 | 68 | 187 | 1.0 | 3.0 | 0.00 | 0.00 | 0.00 | 68 | 1024.9 |
| 20260903213110 | 68 | 187 | 2.0 | 3.0 | 0.00 | 0.00 | 0.00 | 67 | 1024.9 |
| 20260903212557 | 68 | 187 | 0.0 | 2.0 | 0.00 | 0.00 | 0.00 | 66 | 1024.9 |
| 20260903212057 | 68 | 187 | 0.0 | 1.0 | 0.00 | 0.00 | 0.00 | 66 | 1025.0 |
| 20260903211556 | 68 | 187 | 0.0 | 1.0 | 0.00 | 0.00 | 0.00 | 66 | 1024.9 |
| 20260903211056 | 69 | 187 | 0.0 | 1.0 | 0.00 | 0.00 | 0.00 | 66 | 1025.0 |
| 20260903210556 | 69 | 187 | 0.0 | 0.0 | 0.00 | 0.00 | 0.00 | 65 | 1025.0 |
| 20260903210059 | 69 | 187 | 0.0 | 0.0 | 0.00 | 0.00 | 0.00 | 64 | 1025.0 |
| 20260903205555 | 69 | 187 | 0.0 | 0.0 | 0.00 | 0.00 | 0.00 | 65 | 1025.0 |
| 20260903205055 | 69 | 187 | 0.0 | 0.0 | 0.00 | 0.00 | 0.00 | 64 | 1025.0 |
| 20260903204556 | 70 | 187 | 0.0 | 0.0 | 0.00 | 0.00 | 0.00 | 64 | 1025.0 |
| 20260903204056 | 70 | 187 | 0.0 | 0.0 | 0.00 | 0.00 | 0.00 | 63 | 1024.9 |
| 20260903203556 | 70 | 187 | 0.0 | 0.0 | 0.00 | 0.00 | 0.00 | 63 | 1024.9 |
| 20260903203057 | 70 | 187 | 0.0 | 0.0 | 0.00 | 0.00 | 0.00 | 62 | 1024.9 |
| 20260903202555 | 71 | 187 | 0.0 | 0.0 | 0.00 | 0.00 | 0.00 | 62 | 1024.8 |
| 20260903202055 | 71 | 187 | 0.0 | 0.0 | 0.00 | 0.00 | 0.00 | 61 | 1024.9 |
| 20260903201555 | 71 | 187 | 0.0 | 0.0 | 0.00 | 0.00 | 0.00 | 61 | 1024.8 |
| 20260903201057 | 71 | 187 | 0.0 | 0.0 | 0.00 | 0.00 | 0.00 | 61 | 1024.8 |
| 20260903200554 | 72 | 187 | 0.0 | 0.0 | 0.00 | 0.00 | 0.00 | 59 | 1024.8 |
| 20260903200056 | 72 | 187 | 0.0 | 0.0 | 0.00 | 0.00 | 0.00 | 59 | 1024.8 |
| 20260903195554 | 72 | 187 | 0.0 | 0.0 | 0.00 | 0.00 | 0.00 | 58 | 1024.8 |
| 20260903195054 | 72 | 187 | 0.0 | 0.0 | 0.00 | 0.00 | 0.00 | 58 | 1024.7 |
| 20260903194554 | 73 | 187 | 0.0 | 0.0 | 0.00 | 0.00 | 0.00 | 58 | 1024.7 |
| 20260903194054 | 73 | 187 | 0.0 | 0.0 | 0.00 | 0.00 | 0.00 | 57 | 1024.7 |
| 20260903193554 | 73 | 187 | 0.0 | 0.0 | 0.00 | 0.00 | 0.00 | 56 | 1024.7 |
| 20260903193054 | 74 | 187 | 0.0 | 0.0 | 0.00 | 0.00 | 0.00 | 55 | 1024.7 |
| 20260903192556 | 74 | 187 | 0.0 | 1.0 | 0.00 | 0.00 | 0.00 | 55 | 1024.6 |
| 20260903192052 | 74 | 187 | 0.0 | 1.0 | 0.00 | 0.00 | 0.00 | 55 | 1024.6 |
| 20260903191553 | 75 | 187 | 0.0 | 0.0 | 0.00 | 0.00 | 0.00 | 54 | 1024.6 |
| 20260903191056 | 75 | 187 | 0.0 | 0.0 | 0.00 | 0.00 | 0.00 | 54 | 1024.6 |
| 20260903190553 | 75 | 187 | 0.0 | 0.0 | 0.00 | 0.00 | 0.00 | 53 | 1024.7 |
| 20260903190052 | 76 | 187 | 0.0 | 0.0 | 0.00 | 0.00 | 0.00 | 52 | 1024.6 |
| 20260903185555 | 76 | 187 | 0.0 | 1.0 | 0.00 | 0.00 | 0.00 | 51 | 1024.5 |
| 20260903185052 | 76 | 187 | 0.0 | 1.0 | 0.00 | 0.00 | 0.00 | 51 | 1024.3 |
| 20260903184557 | 77 | 187 | 0.0 | 0.0 | 0.00 | 0.00 | 0.00 | 50 | 1024.2 |
| 20260903184053 | 77 | 187 | 0.0 | 0.0 | 0.00 | 0.00 | 0.00 | 50 | 1024.2 |
| 20260903183556 | 77 | 187 | 0.0 | 0.0 | 0.00 | 0.00 | 0.00 | 49 | 1024.2 |
| 20260903183052 | 78 | 187 | 0.0 | 0.0 | 0.00 | 0.00 | 0.00 | 48 | 1024.0 |
| 20260903182552 | 78 | 187 | 0.0 | 0.0 | 0.00 | 0.00 | 0.00 | 48 | 1024.1 |
| 20260903182054 | 78 | 187 | 0.0 | 0.0 | 0.00 | 0.00 | 0.00 | 47 | 1024.0 |
| 20260903181554 | 78 | 187 | 0.0 | 1.0 | 0.00 | 0.00 | 0.00 | 47 | 1023.9 |
| 20260903181051 | 78 | 187 | 0.0 | 1.0 | 0.00 | 0.00 | 0.00 | 47 | 1023.9 |
| 20260903180550 | 78 | 187 | 0.0 | 1.0 | 0.00 | 0.00 | 0.00 | 47 | 1023.8 |
| 20260903180101 | 79 | 187 | 0.0 | 2.0 | 0.00 | 0.00 | 0.00 | 46 | 1023.8 |
| 20260903175551 | 79 | 187 | 0.0 | 3.0 | 0.00 | 0.00 | 0.00 | 46 | 1023.9 |
| 20260903175051 | 79 | 187 | 0.0 | 3.0 | 0.00 | 0.00 | 0.00 | 46 | 1023.9 |
| 20260903174551 | 79 | 187 | 0.0 | 2.0 | 0.00 | 0.00 | 0.00 | 46 | 1023.8 |
| 20260903174050 | 79 | 187 | 1.0 | 2.0 | 0.00 | 0.00 | 0.00 | 46 | 1023.8 |
| 20260903173551 | 79 | 187 | 0.0 | 3.0 | 0.00 | 0.00 | 0.00 | 45 | 1023.8 |
| 20260903173051 | 80 | 187 | 0.0 | 4.0 | 0.00 | 0.00 | 0.00 | 45 | 1023.8 |
| 20260903172650 | 80 | 187 | 0.0 | 4.0 | 0.00 | 0.00 | 0.00 | 45 | 1023.9 |
| 20260903172050 | 80 | 119 | 0.0 | 1.0 | 0.00 | 0.00 | 0.00 | 45 | 1023.9 |
| 20260903171550 | 80 | 338 | 0.0 | 2.0 | 0.00 | 0.00 | 0.00 | 45 | 1023.9 |
| 20260903171049 | 80 | 355 | 0.0 | 2.0 | 0.00 | 0.00 | 0.00 | 44 | 1023.9 |
| 20260903170549 | 80 | 104 | 0.0 | 1.0 | 0.00 | 0.00 | 0.00 | 45 | 1024.0 |
| 20260903170051 | 80 | 255 | 0.0 | 3.0 | 0.00 | 0.00 | 0.00 | 44 | 1023.9 |
| 20260903165548 | 81 | 118 | 1.0 | 5.0 | 0.00 | 0.00 | 0.00 | 43 | 1023.9 |
| 20260903165048 | 81 | 344 | 1.0 | 5.0 | 0.00 | 0.00 | 0.00 | 43 | 1023.9 |
| 20260903164549 | 81 | 315 | 0.0 | 4.0 | 0.00 | 0.00 | 0.00 | 43 | 1023.9 |
| 20260903164048 | 81 | 279 | 1.0 | 5.0 | 0.00 | 0.00 | 0.00 | 43 | 1023.8 |
| 20260903163548 | 81 | 338 | 2.0 | 5.0 | 0.00 | 0.00 | 0.00 | 42 | 1023.9 |
| 20260903163107 | 81 | 132 | 0.0 | 3.0 | 0.00 | 0.00 | 0.00 | 42 | 1023.8 |
| 20260903162548 | 81 | 257 | 0.0 | 5.0 | 0.00 | 0.00 | 0.00 | 42 | 1023.8 |
| 20260903162046 | 81 | 259 | 2.0 | 5.0 | 0.00 | 0.00 | 0.00 | 41 | 1023.8 |
| 20260903161548 | 81 | 194 | 0.0 | 4.0 | 0.00 | 0.00 | 0.00 | 42 | 1023.8 |
| 20260903161047 | 81 | 138 | 0.0 | 4.0 | 0.00 | 0.00 | 0.00 | 42 | 1023.9 |
| 20260903160547 | 82 | 182 | 0.0 | 5.0 | 0.00 | 0.00 | 0.00 | 41 | 1023.9 |
| 20260903160049 | 82 | 146 | 2.0 | 5.0 | 0.00 | 0.00 | 0.00 | 40 | 1024.0 |
| 20260903155546 | 82 | 59 | 0.0 | 8.0 | 0.00 | 0.00 | 0.00 | 41 | 1023.9 |
| 20260903155049 | 82 | 275 | 1.0 | 8.0 | 0.00 | 0.00 | 0.00 | 40 | 1023.9 |
| 20260903154547 | 82 | 338 | 1.0 | 6.0 | 0.00 | 0.00 | 0.00 | 39 | 1023.9 |
| 20260903154046 | 82 | 346 | 2.0 | 7.0 | 0.00 | 0.00 | 0.00 | 39 | 1024.0 |
| 20260903153545 | 82 | 98 | 1.0 | 3.0 | 0.00 | 0.00 | 0.00 | 39 | 1024.0 |
| 20260903153045 | 82 | 67 | 0.0 | 8.0 | 0.00 | 0.00 | 0.00 | 39 | 1023.9 |
| 20260903152545 | 82 | 321 | 1.0 | 8.0 | 0.00 | 0.00 | 0.00 | 38 | 1023.9 |
| 20260903152047 | 82 | 328 | 2.0 | 9.0 | 0.00 | 0.00 | 0.00 | 38 | 1024.0 |
| 20260903151545 | 83 | 195 | 2.0 | 9.0 | 0.00 | 0.00 | 0.00 | 38 | 1024.1 |
| 20260903151044 | 83 | 318 | 1.0 | 6.0 | 0.00 | 0.00 | 0.00 | 37 | 1024.0 |
| 20260903150544 | 83 | 326 | 0.0 | 6.0 | 0.00 | 0.00 | 0.00 | 38 | 1024.0 |
| 20260903150044 | 83 | 172 | 0.0 | 7.0 | 0.00 | 0.00 | 0.00 | 38 | 1024.0 |
| 20260903145543 | 83 | 172 | 1.0 | 7.0 | 0.00 | 0.00 | 0.00 | 37 | 1024.0 |
| 20260903145046 | 83 | 178 | 3.0 | 7.0 | 0.00 | 0.00 | 0.00 | 37 | 1023.9 |
| 20260903144548 | 83 | 211 | 2.0 | 5.0 | 0.00 | 0.00 | 0.00 | 38 | 1024.0 |
| 20260903144045 | 84 | 305 | 0.0 | 4.0 | 0.00 | 0.00 | 0.00 | 38 | 1024.0 |
| 20260903143544 | 84 | 278 | 1.0 | 8.0 | 0.00 | 0.00 | 0.00 | 38 | 1024.1 |
| 20260903143046 | 84 | 304 | 1.0 | 8.0 | 0.00 | 0.00 | 0.00 | 38 | 1023.9 |
| 20260903142546 | 83 | 5 | 2.0 | 8.0 | 0.00 | 0.00 | 0.00 | 38 | 1023.9 |
| 20260903142043 | 84 | 82 | 2.0 | 8.0 | 0.00 | 0.00 | 0.00 | 37 | 1024.0 |
| 20260903141542 | 84 | 103 | 2.0 | 8.0 | 0.00 | 0.00 | 0.00 | 37 | 1024.0 |
| 20260903141042 | 84 | 233 | 2.0 | 9.0 | 0.00 | 0.00 | 0.00 | 37 | 1023.9 |
| 20260903140542 | 84 | 324 | 2.0 | 9.0 | 0.00 | 0.00 | 0.00 | 37 | 1024.0 |
| 20260903140042 | 84 | 105 | 1.0 | 7.0 | 0.00 | 0.00 | 0.00 | 36 | 1023.9 |
| 20260903135543 | 84 | 190 | 1.0 | 8.0 | 0.00 | 0.00 | 0.00 | 36 | 1024.0 |
| 20260903135041 | 84 | 183 | 3.0 | 8.0 | 0.00 | 0.00 | 0.00 | 36 | 1024.0 |
| 20260903134541 | 84 | 26 | 1.0 | 5.0 | 0.00 | 0.00 | 0.00 | 37 | 1023.9 |
| 20260903134043 | 83 | 132 | 1.0 | 7.0 | 0.00 | 0.00 | 0.00 | 37 | 1024.0 |
| 20260903133540 | 84 | 138 | 2.0 | 8.0 | 0.00 | 0.00 | 0.00 | 37 | 1024.0 |
| 20260903133048 | 84 | 282 | 3.0 | 8.0 | 0.00 | 0.00 | 0.00 | 37 | 1024.0 |
| 20260903132543 | 84 | 351 | 3.0 | 6.0 | 0.00 | 0.00 | 0.00 | 35 | 1024.0 |
| 20260903132040 | 84 | 223 | 1.0 | 6.0 | 0.00 | 0.00 | 0.00 | 37 | 1024.1 |
| 20260903131540 | 84 | 83 | 1.0 | 10.0 | 0.00 | 0.00 | 0.00 | 37 | 1024.1 |
| 20260903131040 | 84 | 247 | 3.0 | 10.0 | 0.00 | 0.00 | 0.00 | 36 | 1024.0 |
| 20260903130543 | 84 | 19 | 1.0 | 8.0 | 0.00 | 0.00 | 0.00 | 38 | 1024.1 |
| 20260903130039 | 85 | 348 | 3.0 | 8.0 | 0.00 | 0.00 | 0.00 | 35 | 1024.2 |
| 20260903125543 | 84 | 118 | 1.0 | 3.0 | 0.00 | 0.00 | 0.00 | 37 | 1024.0 |
| 20260903125038 | 84 | 215 | 1.0 | 10.0 | 0.00 | 0.00 | 0.00 | 36 | 1024.1 |
| 20260903124537 | 84 | 155 | 2.0 | 10.0 | 0.00 | 0.00 | 0.00 | 36 | 1024.1 |
| 20260903124035 | 83 | 180 | 1.0 | 9.0 | 0.00 | 0.00 | 0.00 | 35 | 1024.1 |
| 20260903123544 | 83 | 325 | 3.0 | 9.0 | 0.00 | 0.00 | 0.00 | 33 | 1024.2 |
| 20260903123035 | 83 | 93 | 1.0 | 5.0 | 0.00 | 0.00 | 0.00 | 35 | 1024.3 |
| 20260903122533 | 83 | 306 | 1.0 | 9.0 | 0.00 | 0.00 | 0.00 | 35 | 1024.4 |
| 20260903122033 | 82 | 306 | 3.0 | 9.0 | 0.00 | 0.00 | 0.00 | 36 | 1024.5 |
| 20260903121541 | 82 | 28 | 1.0 | 5.0 | 0.00 | 0.00 | 0.00 | 36 | 1024.7 |
| 20260903121032 | 83 | 37 | 2.0 | 8.0 | 0.00 | 0.00 | 0.00 | 36 | 1024.7 |
| 20260903120532 | 83 | 94 | 0.0 | 7.0 | 0.00 | 0.00 | 0.00 | 36 | 1024.7 |
| 20260903120042 | 83 | 323 | 1.0 | 4.0 | 0.00 | 0.00 | 0.00 | 37 | 1024.7 |
| 20260903115530 | 82 | 130 | 1.0 | 9.0 | 0.00 | 0.00 | 0.00 | 38 | 1024.7 |
| 20260903115032 | 82 | 118 | 2.0 | 9.0 | 0.00 | 0.00 | 0.00 | 38 | 1024.8 |
| 20260903114529 | 82 | 59 | 1.0 | 6.0 | 0.00 | 0.00 | 0.00 | 39 | 1024.9 |
| 20260903114029 | 81 | 218 | 0.0 | 6.0 | 0.00 | 0.00 | 0.00 | 39 | 1025.0 |
| 20260903113528 | 81 | 350 | 2.0 | 6.0 | 0.00 | 0.00 | 0.00 | 38 | 1025.2 |
| 20260903113028 | 81 | 298 | 1.0 | 6.0 | 0.00 | 0.00 | 0.00 | 39 | 1025.2 |
| 20260903112527 | 81 | 5 | 2.0 | 5.0 | 0.00 | 0.00 | 0.00 | 39 | 1025.2 |
| 20260903112027 | 81 | 132 | 0.0 | 9.0 | 0.00 | 0.00 | 0.00 | 40 | 1025.1 |
| 20260903111527 | 81 | 5 | 2.0 | 9.0 | 0.00 | 0.00 | 0.00 | 40 | 1025.2 |
| 20260903111027 | 82 | 330 | 2.0 | 7.0 | 0.00 | 0.00 | 0.00 | 39 | 1025.2 |
| 20260903110527 | 82 | 134 | 2.0 | 9.0 | 0.00 | 0.00 | 0.00 | 39 | 1025.3 |
| 20260903110025 | 81 | 30 | 1.0 | 9.0 | 0.00 | 0.00 | 0.00 | 39 | 1025.3 |
| 20260903105524 | 80 | 36 | 2.0 | 5.0 | 0.00 | 0.00 | 0.00 | 41 | 1025.4 |
| 20260903105026 | 80 | 308 | 0.0 | 9.0 | 0.00 | 0.00 | 0.00 | 41 | 1025.4 |
| 20260903104523 | 80 | 340 | 3.0 | 10.0 | 0.00 | 0.00 | 0.00 | 41 | 1025.3 |
| 20260903104023 | 80 | 342 | 3.0 | 10.0 | 0.00 | 0.00 | 0.00 | 41 | 1025.3 |
| 20260903103525 | 80 | 104 | 2.0 | 6.0 | 0.00 | 0.00 | 0.00 | 42 | 1025.4 |
| 20260903103021 | 80 | 127 | 0.0 | 5.0 | 0.00 | 0.00 | 0.00 | 46 | 1025.4 |
| 20260903102520 | 79 | 346 | 2.0 | 5.0 | 0.00 | 0.00 | 0.00 | 45 | 1025.5 |
| 20260903102020 | 78 | 219 | 1.0 | 5.0 | 0.00 | 0.00 | 0.00 | 48 | 1025.5 |
| 20260903101518 | 78 | 235 | 0.0 | 3.0 | 0.00 | 0.00 | 0.00 | 47 | 1025.4 |
| 20260903101017 | 78 | 209 | 0.0 | 5.0 | 0.00 | 0.00 | 0.00 | 48 | 1025.5 |
| 20260903100516 | 78 | 312 | 1.0 | 5.0 | 0.00 | 0.00 | 0.00 | 49 | 1025.5 |
| 20260903100016 | 78 | 168 | 0.0 | 5.0 | 0.00 | 0.00 | 0.00 | 48 | 1025.6 |
| 20260903095514 | 78 | 135 | 1.0 | 7.0 | 0.00 | 0.00 | 0.00 | 49 | 1025.6 |
| 20260903095014 | 78 | 191 | 1.0 | 4.0 | 0.00 | 0.00 | 0.00 | 49 | 1025.7 |
| 20260903094513 | 78 | 103 | 1.0 | 7.0 | 0.00 | 0.00 | 0.00 | 49 | 1025.7 |
| 20260903094013 | 78 | 98 | 1.0 | 4.0 | 0.00 | 0.00 | 0.00 | 49 | 1025.8 |
| 20260903093513 | 77 | 120 | 1.0 | 4.0 | 0.00 | 0.00 | 0.00 | 49 | 1025.8 |
| 20260903093012 | 77 | 140 | 1.0 | 4.0 | 0.00 | 0.00 | 0.00 | 50 | 1026.0 |
| 20260903092513 | 77 | 169 | 0.0 | 4.0 | 0.00 | 0.00 | 0.00 | 50 | 1025.8 |
| 20260903092011 | 77 | 169 | 0.0 | 3.0 | 0.00 | 0.00 | 0.00 | 49 | 1025.8 |
| 20260903091508 | 77 | 166 | 0.0 | 5.0 | 0.00 | 0.00 | 0.00 | 51 | 1025.8 |
| 20260903091007 | 77 | 168 | 1.0 | 5.0 | 0.00 | 0.00 | 0.00 | 50 | 1026.0 |
| 20260903090505 | 76 | 176 | 0.0 | 3.0 | 0.00 | 0.00 | 0.00 | 52 | 1025.8 |
| 20260903090004 | 75 | 176 | 0.0 | 4.0 | 0.00 | 0.00 | 0.00 | 54 | 1025.8 |
| 20260903085503 | 75 | 132 | 0.0 | 4.0 | 0.00 | 0.00 | 0.00 | 54 | 1025.8 |
| 20260903085001 | 75 | 134 | 1.0 | 3.0 | 0.00 | 0.00 | 0.00 | 55 | 1025.9 |
| 20260903084601 | 74 | 127 | 0.0 | 2.0 | 0.00 | 0.00 | 0.00 | 56 | 1026.0 |
| 20260903084059 | 73 | 127 | 0.0 | 2.0 | 0.00 | 0.00 | 0.00 | 58 | 1025.8 |
| 20260903083601 | 72 | 127 | 0.0 | 3.0 | 0.00 | 0.00 | 0.00 | 60 | 1025.8 |
| 20260903083056 | 71 | 126 | 1.0 | 4.0 | 0.00 | 0.00 | 0.00 | 62 | 1025.7 |
| 20260903082554 | 70 | 126 | 1.0 | 4.0 | 0.00 | 0.00 | 0.00 | 64 | 1025.6 |
| 20260903082052 | 69 | 183 | 0.0 | 1.0 | 0.00 | 0.00 | 0.00 | 67 | 1025.7 |
| 20260903081551 | 68 | 241 | 0.0 | 2.0 | 0.00 | 0.00 | 0.00 | 69 | 1025.8 |
| 20260903081052 | 67 | 241 | 0.0 | 2.0 | 0.00 | 0.00 | 0.00 | 69 | 1026.0 |
| 20260903080548 | 67 | 241 | 0.0 | 2.0 | 0.00 | 0.00 | 0.00 | 72 | 1026.1 |
| 20260903080047 | 66 | 241 | 0.0 | 3.0 | 0.00 | 0.00 | 0.00 | 74 | 1026.1 |
| 20260903075544 | 65 | 240 | 0.0 | 3.0 | 0.00 | 0.00 | 0.00 | 75 | 1026.0 |
| 20260903075044 | 64 | 240 | 1.0 | 3.0 | 0.00 | 0.00 | 0.00 | 76 | 1025.9 |
| 20260903074601 | 64 | 249 | 0.0 | 0.0 | 0.00 | 0.00 | 0.00 | 77 | 1025.8 |
| 20260903074044 | 63 | 249 | 0.0 | 0.0 | 0.00 | 0.00 | 0.00 | 78 | 1025.7 |
| 20260903073544 | 62 | 249 | 0.0 | 0.0 | 0.00 | 0.00 | 0.00 | 79 | 1025.6 |
| 20260903073054 | 62 | 249 | 0.0 | 0.0 | 0.00 | 0.00 | 0.00 | 80 | 1025.6 |
| 20260903072543 | 62 | 249 | 0.0 | 1.0 | 0.00 | 0.00 | 0.00 | 81 | 1025.6 |
| 20260903072043 | 61 | 249 | 0.0 | 2.0 | 0.00 | 0.00 | 0.00 | 81 | 1025.6 |
| 20260903071542 | 61 | 249 | 0.0 | 2.0 | 0.00 | 0.00 | 0.00 | 82 | 1025.6 |
| 20260903071041 | 60 | 249 | 0.0 | 2.0 | 0.00 | 0.00 | 0.00 | 82 | 1025.8 |
| 20260903070541 | 60 | 249 | 0.0 | 2.0 | 0.00 | 0.00 | 0.00 | 82 | 1025.8 |
| 20260903070041 | 59 | 254 | 0.0 | 0.0 | 0.00 | 0.00 | 0.00 | 83 | 1025.9 |
| 20260903065542 | 59 | 254 | 0.0 | 3.0 | 0.00 | 0.00 | 0.00 | 83 | 1025.8 |
| 20260903065040 | 59 | 254 | 0.0 | 3.0 | 0.00 | 0.00 | 0.00 | 83 | 1025.9 |
| 20260903064541 | 59 | 255 | 1.0 | 3.0 | 0.00 | 0.00 | 0.00 | 84 | 1025.9 |
| 20260903064040 | 58 | 308 | 0.0 | 3.0 | 0.00 | 0.00 | 0.00 | 84 | 1025.8 |
| 20260903063541 | 58 | 309 | 0.0 | 3.0 | 0.00 | 0.00 | 0.00 | 84 | 1025.8 |
| 20260903063040 | 58 | 309 | 1.0 | 3.0 | 0.00 | 0.00 | 0.00 | 84 | 1025.9 |
| 20260903062540 | 58 | 270 | 0.0 | 2.0 | 0.00 | 0.00 | 0.00 | 85 | 1025.8 |
| 20260903062040 | 57 | 302 | 0.0 | 3.0 | 0.00 | 0.00 | 0.00 | 85 | 1025.9 |
| 20260903061556 | 57 | 309 | 0.0 | 4.0 | 0.00 | 0.00 | 0.00 | 85 | 1026.0 |
| 20260903061038 | 57 | 314 | 1.0 | 4.0 | 0.00 | 0.00 | 0.00 | 85 | 1026.1 |
| 20260903060538 | 57 | 316 | 0.0 | 4.0 | 0.00 | 0.00 | 0.00 | 85 | 1026.0 |
| 20260903060038 | 57 | 322 | 1.0 | 4.0 | 0.00 | 0.00 | 0.00 | 85 | 1025.9 |
| 20260903055537 | 57 | 273 | 0.0 | 4.0 | 0.00 | 0.00 | 0.00 | 85 | 1025.8 |
| 20260903055035 | 57 | 306 | 1.0 | 4.0 | 0.00 | 0.00 | 0.00 | 85 | 1025.7 |
| 20260903054535 | 56 | 314 | 1.0 | 5.0 | 0.00 | 0.00 | 0.00 | 85 | 1025.7 |
| 20260903054035 | 56 | 314 | 1.0 | 5.0 | 0.00 | 0.00 | 0.00 | 85 | 1025.7 |
| 20260903053535 | 56 | 309 | 1.0 | 4.0 | 0.00 | 0.00 | 0.00 | 85 | 1025.6 |
| 20260903053036 | 57 | 317 | 1.0 | 4.0 | 0.00 | 0.00 | 0.00 | 85 | 1025.6 |
| 20260903052534 | 57 | 319 | 1.0 | 4.0 | 0.00 | 0.00 | 0.00 | 85 | 1025.6 |
| 20260903052033 | 57 | 311 | 0.0 | 3.0 | 0.00 | 0.00 | 0.00 | 85 | 1025.5 |
| 20260903051532 | 57 | 310 | 0.0 | 3.0 | 0.00 | 0.00 | 0.00 | 85 | 1025.4 |
| 20260903051030 | 57 | 311 | 1.0 | 4.0 | 0.00 | 0.00 | 0.00 | 85 | 1025.4 |
| 20260903050529 | 57 | 298 | 1.0 | 4.0 | 0.00 | 0.00 | 0.00 | 85 | 1025.4 |
| 20260903050032 | 57 | 317 | 1.0 | 3.0 | 0.00 | 0.00 | 0.00 | 84 | 1025.4 |
| 20260903045528 | 57 | 317 | 0.0 | 3.0 | 0.00 | 0.00 | 0.00 | 84 | 1025.4 |
| 20260903045028 | 57 | 313 | 0.0 | 2.0 | 0.00 | 0.00 | 0.00 | 84 | 1025.4 |
| 20260903044528 | 57 | 313 | 0.0 | 3.0 | 0.00 | 0.00 | 0.00 | 84 | 1025.4 |
| 20260903044027 | 57 | 315 | 1.0 | 3.0 | 0.00 | 0.00 | 0.00 | 84 | 1025.3 |
| 20260903043527 | 57 | 315 | 0.0 | 4.0 | 0.00 | 0.00 | 0.00 | 84 | 1025.3 |
| 20260903043026 | 57 | 314 | 2.0 | 4.0 | 0.00 | 0.00 | 0.00 | 84 | 1025.3 |
| 20260903042528 | 57 | 311 | 2.0 | 4.0 | 0.00 | 0.00 | 0.00 | 84 | 1025.3 |
| 20260903042025 | 57 | 294 | 0.0 | 3.0 | 0.00 | 0.00 | 0.00 | 84 | 1025.2 |
| 20260903041531 | 57 | 295 | 1.0 | 3.0 | 0.00 | 0.00 | 0.00 | 84 | 1025.2 |
| 20260903041025 | 57 | 293 | 0.0 | 4.0 | 0.00 | 0.00 | 0.00 | 84 | 1025.2 |
| 20260903040524 | 57 | 292 | 0.0 | 4.0 | 0.00 | 0.00 | 0.00 | 84 | 1025.1 |
| 20260903040024 | 57 | 323 | 1.0 | 3.0 | 0.00 | 0.00 | 0.00 | 84 | 1025.1 |
| 20260903035523 | 57 | 312 | 1.0 | 4.0 | 0.00 | 0.00 | 0.00 | 84 | 1025.1 |
| 20260903035025 | 57 | 311 | 2.0 | 4.0 | 0.00 | 0.00 | 0.00 | 84 | 1025.2 |
| 20260903034523 | 58 | 311 | 0.0 | 0.0 | 0.00 | 0.00 | 0.00 | 83 | 1025.1 |
| 20260903034026 | 58 | 311 | 0.0 | 0.0 | 0.00 | 0.00 | 0.00 | 83 | 1025.2 |
| 20260903033522 | 58 | 311 | 0.0 | 0.0 | 0.00 | 0.00 | 0.00 | 83 | 1025.2 |
| 20260903033022 | 58 | 311 | 0.0 | 2.0 | 0.00 | 0.00 | 0.00 | 83 | 1025.2 |
| 20260903032522 | 58 | 311 | 0.0 | 2.0 | 0.00 | 0.00 | 0.00 | 83 | 1025.2 |
| 20260903032021 | 58 | 313 | 0.0 | 3.0 | 0.00 | 0.00 | 0.00 | 83 | 1025.2 |
| 20260903031525 | 58 | 313 | 0.0 | 3.0 | 0.00 | 0.00 | 0.00 | 83 | 1025.3 |
| 20260903031020 | 58 | 314 | 1.0 | 3.0 | 0.00 | 0.00 | 0.00 | 83 | 1025.3 |
| 20260903030520 | 58 | 314 | 2.0 | 4.0 | 0.00 | 0.00 | 0.00 | 83 | 1025.2 |
| 20260903030020 | 58 | 312 | 0.0 | 4.0 | 0.00 | 0.00 | 0.00 | 83 | 1025.3 |
| 20260903025524 | 58 | 312 | 0.0 | 3.0 | 0.00 | 0.00 | 0.00 | 82 | 1025.2 |
| 20260903025018 | 58 | 312 | 1.0 | 3.0 | 0.00 | 0.00 | 0.00 | 82 | 1025.2 |
| 20260903024519 | 58 | 311 | 0.0 | 2.0 | 0.00 | 0.00 | 0.00 | 82 | 1025.1 |
| 20260903024018 | 58 | 311 | 0.0 | 2.0 | 0.00 | 0.00 | 0.00 | 82 | 1025.0 |
| 20260903023517 | 58 | 281 | 0.0 | 0.0 | 0.00 | 0.00 | 0.00 | 82 | 1025.0 |
| 20260903023018 | 59 | 281 | 0.0 | 0.0 | 0.00 | 0.00 | 0.00 | 82 | 1025.2 |
| 20260903022517 | 59 | 281 | 0.0 | 0.0 | 0.00 | 0.00 | 0.00 | 82 | 1025.1 |
| 20260903022016 | 59 | 281 | 0.0 | 0.0 | 0.00 | 0.00 | 0.00 | 82 | 1025.1 |
| 20260903021518 | 59 | 281 | 0.0 | 0.0 | 0.00 | 0.00 | 0.00 | 82 | 1025.1 |
| 20260903021016 | 59 | 281 | 0.0 | 0.0 | 0.00 | 0.00 | 0.00 | 81 | 1025.1 |
| 20260903020515 | 59 | 281 | 0.0 | 0.0 | 0.00 | 0.00 | 0.00 | 81 | 1025.1 |
| 20260903020031 | 59 | 281 | 0.0 | 0.0 | 0.00 | 0.00 | 0.00 | 81 | 1025.2 |
| 20260903015514 | 59 | 284 | 0.0 | 0.0 | 0.00 | 0.00 | 0.00 | 81 | 1025.2 |
| 20260903015014 | 59 | 284 | 0.0 | 3.0 | 0.00 | 0.00 | 0.00 | 81 | 1025.2 |
| 20260903014514 | 59 | 284 | 0.0 | 2.0 | 0.00 | 0.00 | 0.00 | 81 | 1025.2 |
| 20260903014016 | 59 | 290 | 0.0 | 2.0 | 0.00 | 0.00 | 0.00 | 81 | 1025.2 |
| 20260903013514 | 59 | 290 | 0.0 | 2.0 | 0.00 | 0.00 | 0.00 | 80 | 1025.2 |
| 20260903013013 | 60 | 290 | 0.0 | 2.0 | 0.00 | 0.00 | 0.00 | 81 | 1025.2 |
| 20260903012516 | 60 | 294 | 0.0 | 2.0 | 0.00 | 0.00 | 0.00 | 81 | 1025.2 |
| 20260903012011 | 60 | 294 | 0.0 | 3.0 | 0.00 | 0.00 | 0.00 | 80 | 1025.2 |
| 20260903011511 | 60 | 295 | 1.0 | 3.0 | 0.00 | 0.00 | 0.00 | 80 | 1025.2 |
| 20260903011011 | 60 | 294 | 1.0 | 3.0 | 0.00 | 0.00 | 0.00 | 80 | 1025.2 |
| 20260903010510 | 60 | 294 | 0.0 | 3.0 | 0.00 | 0.00 | 0.00 | 80 | 1025.2 |
| 20260903010012 | 60 | 294 | 0.0 | 2.0 | 0.00 | 0.00 | 0.00 | 80 | 1025.0 |
| 20260903005509 | 60 | 294 | 0.0 | 2.0 | 0.00 | 0.00 | 0.00 | 79 | 1025.0 |
| 20260903005010 | 60 | 294 | 0.0 | 2.0 | 0.00 | 0.00 | 0.00 | 79 | 1025.0 |
| 20260903004508 | 60 | 296 | 0.0 | 3.0 | 0.00 | 0.00 | 0.00 | 79 | 1025.0 |
| 20260903004008 | 61 | 296 | 0.0 | 3.0 | 0.00 | 0.00 | 0.00 | 79 | 1024.9 |
| 20260903003507 | 61 | 296 | 0.0 | 3.0 | 0.00 | 0.00 | 0.00 | 79 | 1024.9 |
| 20260903003008 | 61 | 296 | 0.0 | 2.0 | 0.00 | 0.00 | 0.00 | 79 | 1024.9 |
| 20260903002506 | 61 | 296 | 0.0 | 2.0 | 0.00 | 0.00 | 0.00 | 79 | 1024.9 |
| 20260903002010 | 61 | 296 | 0.0 | 2.0 | 0.00 | 0.00 | 0.00 | 79 | 1024.9 |
| 20260903001505 | 61 | 298 | 0.0 | 1.0 | 0.00 | 0.00 | 0.00 | 79 | 1024.9 |
| 20260903001007 | 61 | 298 | 0.0 | 3.0 | 0.00 | 0.00 | 0.00 | 79 | 1024.8 |
| 20260903000503 | 61 | 298 | 0.0 | 3.0 | 0.00 | 0.00 | 0.00 | 78 | 1024.8 |
| 20260903000003 | 62 | 297 | 0.0 | 2.0 | 0.00 | 0.00 | 0.00 | 78 | 1024.8 |
| 20260902235503 | 62 | 297 | 0.0 | 4.0 | 0.00 | 0.00 | 0.00 | 78 | 1024.8 |
| 20260902235002 | 62 | 304 | 2.0 | 4.0 | 0.00 | 0.00 | 0.00 | 78 | 1024.8 |
| 20260902234500 | 62 | 303 | 0.0 | 0.0 | 0.00 | 0.00 | 0.00 | 78 | 1024.7 |
| 20260902234105 | 62 | 303 | 0.0 | 0.0 | 0.00 | 0.00 | 0.00 | 78 | 1024.6 |
| 20260902233603 | 62 | 303 | 0.0 | 0.0 | 0.00 | 0.00 | 0.00 | 78 | 1024.7 |